Voltar ao catálogo

CZ-6A DEB

AtivoPO
NORAD 61417·DEBRIS·🇨🇳 China

Lançado Aug 6, 2024 de Taiyuan Satellite Launch Center

Loading…

Próximas Passagens (próximas 24 horas)

TLE

AtualizadoSource: Space-Track

Época: Sep 14, 2026, 10:24 UTC

1 61417U 24140YJ  26257.43349385  .00008002  00000-0  59492-3 0  9993
2 61417  88.9683 252.0589 0091507 145.9769 214.7381 14.99509874109065

Acompanhe CZ-6A DEB em tempo real com AllMySat

Download on the App Store